Regional Weather Roundup
Issued by NWS

Home | Current Version | Previous Version | Graphics & Text | Print | Product List | Glossary On
Versions: 1 2 3 4 5 6 7 8 9 10 11 12 13 14 15 16 17 18 19 20 21 22 23 24 25 26 27 28 29 30 31 32 33 34 35 36 37 38 39 40 41 42 43 44 45 46 47 48 49 50
000
ASUS43 KFSD 030810
RWRSD

WEATHER ROUNDUP FOR SOUTH DAKOTA
NATIONAL WEATHER SERVICE SIOUX FALLS SD
300 AM CDT FRI JUL 03 2015

NOTE: "FAIR" INDICATES FEW OR NO CLOUDS BELOW 12,000 FEET WITH NO
SIGNIFICANT WEATHER AND/OR OBSTRUCTIONS TO VISIBILITY.


SDZ001>005-009-010-012>017-030900-
NORTHWEST AND NORTH CENTRAL SOUTH DAKOTA

CITY           SKY/WX    TMP DP  RH WIND       PRES   REMARKS
BUFFALO          N/A     64  58  80 W6        30.02F
FAITH            N/A     64  57  78 CALM      30.05S
MOBRIDGE       CLEAR     64  63  96 CALM      29.97S FOG
$$

SDZ012>016-024>037-041>051-057-063-072>074-030900-
SOUTHWEST AND SOUTH CENTRAL SOUTH DAKOTA

CITY           SKY/WX    TMP DP  RH WIND       PRES   REMARKS
RAPID CTY ARPT CLEAR     61  57  87 NW5       30.09F
PIERRE         CLEAR     61  61 100 CALM      29.99S FOG
CUSTER         CLEAR     53  49  86 W6        30.21F FOG
ELLSWORTH AFB  CLEAR     61  58  90 NW5       30.08F
PHILIP         CLEAR     60  59  96 W5        30.03S
PINE RIDGE     CLEAR     59  56  89 CALM      30.09F
SPEARFISH      FAIR      57  54  88 S5        30.13F
WINNER         FAIR      64  60  87 S6        30.02S FOG
$$

SDZ004>011-016>023-039-040-030900-
NORTHEAST SOUTH DAKOTA

CITY           SKY/WX    TMP DP  RH WIND       PRES   REMARKS
ABERDEEN       CLEAR     62  60  93 S5        29.97S FOG
WATERTOWN      CLEAR     56  53  90 CALM      30.00R
BROOKINGS      CLEAR     55  50  82 CALM      30.03S
SISSETON         N/A     64  55  72 W7        29.94F
$$

SDZ017-020-022-023-036>040-048>070-030900-
SOUTHEAST SOUTH DAKOTA

CITY           SKY/WX    TMP DP  RH WIND       PRES   REMARKS
SIOUX FALLS    FOG       57  56  96 CALM      30.01F VSB 1/4
HURON          CLEAR     59  57  93 S3        29.99S
CHAMBERLAIN    FOG       61  61 100 CALM      30.00S VSB 1/4
MITCHELL       CLEAR     58  57  97 SE3       30.01S FOG
YANKTON        CLOUDY    61  57  88 E5        30.00F
$$

ABBREVIATIONS USED IN REMARKS
   TC - TEMPERATURE IN CELSIUS
  WCI - WIND CHILL INDEX
   HX - HEAT INDEX
  VSB - VISIBILITY



USA.gov is the U.S. government's official web portal to all federal, state and local government web resources and services.